METEOSAT 4 (MOP 1)

导读

METEOSAT 4(又称MOP 1)是欧洲空间局(ESA)发射的第四代气象卫星,于1989年3月6日发射升空,属于欧洲静止气象卫星系列(Meteosat),运行在地球同步轨道。它承担着欧洲及大西洋区域的气象观测任务,通过可见光和红外扫描成像,持续监测大气运动、云层分布、地表温度等气象要素,为天气预报、气候研究提供关键数据,为欧洲气象业务服务延续了近十年的观测能力,是欧洲早期静止气象卫星网络的重要组成部分。

Basic Information
目录编号:
19876
目录名称:
METEOSAT 4 (MOP 1)
国际标识:
1989-020B
轨道中心:
EARTH
卫星名称:
METEOSAT 4 (MOP 1)
卫星全名:
--
卫星状态:
在轨 (已飞行13658 天)
发射日期:
1989-03-06 UTC
国别 :
(ESA)
星等 :
--
Orbit Information
数据来源 国际轨道数据 AOE轨道数据
星历时间 2026-07-28T08:26:00+0800
17小时前
查看轨道信息
2026-07-25T04:00:00+0800
3天前
查看轨道信息
半长轴 43075.266km 43075.709km
偏心率 0.0021957 0.002194
轨道倾角 14.863° 14.865°
近地点辐角 210.134° 209.622°
升交点赤经 346.056° 346.077°
平近点角 154.283° 121.412°
近地点 36602.548km 36603.063km
远地点 36791.71km 36792.081km
周期 1482.865分钟 1482.888分钟
每日圈数 0.971093 0.971078
Detailed Information
使用方式:
暂无
2D Orbit Map
3D Orbit Map
Orbit Altitude Analysis Chart
Orbit Inclination Analysis Chart
Orbit Comprehensive Analysis Chart
View Comprehensive Chart